Location: Domachevo
(51.7500°N, 23.6000°E)
Time: 03:15:07
(UTC+03:00)

Genesis I - Visible Passes

Search period start: 26 April 2017 00:00
Search period end: 06 May 2017 00:00
Orbit: 508 x 523 km, 64.5° (Epoch: 24 April)

Date Brightness Start Highest point End Pass type
(mag) Time Alt. Az. Time Alt. Az. Time Alt. Az.
26 Apr 6.3 00:11:13 10° NNW 00:13:22 14° N 00:15:31 10° NE visible
26 Apr 5.1 01:48:42 10° NNW 01:52:13 29° NNE 01:55:25 12° E visible
26 Apr 3.2 03:26:15 10° NW 03:30:08 55° SW 03:30:18 55° SW visible
26 Apr 6.2 22:16:02 10° NW 22:18:27 15° NNW 22:20:51 10° NNE visible
26 Apr 6.2 23:55:27 10° NNW 23:57:38 14° N 23:59:47 10° NE visible
27 Apr 5.1 01:32:56 10° NNW 01:36:28 30° NNE 01:38:56 16° E visible
27 Apr 3.5 03:10:30 10° NW 03:13:51 49° W 03:13:51 49° W visible
27 Apr 6.1 22:00:18 10° NW 22:02:42 15° NNW 22:05:06 10° NNE visible
27 Apr 6.1 23:39:41 10° NNW 23:41:52 14° N 23:44:03 10° NE visible
28 Apr 5.0 01:17:10 10° NNW 01:20:43 30° NNE 01:22:47 19° E visible
28 Apr 3.8 02:54:44 10° NW 02:57:42 42° W 02:57:42 42° W visible
28 Apr 6.1 21:44:34 10° NW 21:46:57 15° NNW 21:49:21 10° NNE visible
28 Apr 6.1 23:23:56 10° NNW 23:26:08 14° N 23:28:19 10° NE visible
29 Apr 4.9 01:01:24 10° NNW 01:04:57 30° NNE 01:06:49 21° ENE visible
29 Apr 4.0 02:38:58 10° NW 02:41:45 38° WNW 02:41:45 38° WNW visible
29 Apr 6.1 21:28:50 10° NW 21:31:11 15° NNW 21:33:34 10° NNE visible
29 Apr 6.1 23:08:10 10° NNW 23:10:22 14° N 23:12:35 10° NE visible
30 Apr 4.9 00:45:37 10° NNW 00:49:11 31° NNE 00:50:57 22° ENE visible
30 Apr 4.1 02:23:12 10° NW 02:25:54 37° WNW 02:25:54 37° WNW visible
30 Apr 6.0 22:52:24 10° NNW 22:54:37 14° N 22:56:50 10° NE visible
01 May 4.8 00:29:51 10° NNW 00:33:26 31° NNE 00:35:11 22° ENE visible
01 May 4.2 02:07:26 10° NW 02:10:08 36° WNW 02:10:08 36° WNW visible
01 May 6.0 22:36:37 10° NNW 22:38:51 14° N 22:41:05 10° NE visible
02 May 4.8 00:14:04 10° NNW 00:17:40 32° NE 00:19:28 22° E visible
02 May 4.2 01:51:40 10° NW 01:54:25 37° W 01:54:25 37° W visible
02 May 5.9 22:20:51 10° NNW 22:23:05 14° N 22:25:20 10° NE visible
02 May 4.7 23:58:17 10° NNW 00:01:53 32° NE 00:03:48 21° E visible
03 May 4.1 01:35:54 10° NW 01:38:45 38° W 01:38:45 38° W visible
03 May 5.9 22:05:04 10° NNW 22:07:19 14° NNE 22:09:35 10° NE visible
03 May 4.7 23:42:30 10° NNW 23:46:07 32° NE 23:48:11 20° E visible
04 May 4.0 01:20:07 10° NW 01:23:09 40° W 01:23:09 40° W visible
04 May 5.9 21:49:17 10° NNW 21:51:34 15° NNE 21:53:49 10° NE visible
04 May 4.6 23:26:42 10° NNW 23:30:20 33° NE 23:32:36 18° E visible
05 May 3.9 01:04:21 10° NW 01:07:34 42° W 01:07:34 42° W visible
05 May 5.8 21:33:30 10° NNW 21:35:47 15° NNE 21:38:04 10° NE visible
05 May 4.6 23:10:55 10° NNW 23:14:33 33° NE 23:17:03 17° E visible
